Powrót do katalogu

OPS 4682 DEB

AktywnyPO
NORAD 38455·DEBRIS·🇺🇸 United States

Wystrzelony Apr 3, 1965 z Vandenberg Space Force Base

Loading…

Następne Przeloty (najbliższe 24 godziny)

TLE

Starzejące sięSource: Space-Track

Epoka: Sep 9, 2026, 14:40 UTC

1 38455U 65027FL  26252.61175934  .00000798  00000-0  26996-2 0  9996
2 38455  90.2434   6.1664 0028598 175.6559 184.4815 12.97941254595466

Śledź OPS 4682 DEB w czasie rzeczywistym z AllMySat

Download on the App Store